sat.trackr.live / text

‹ back to catalog

STARLINK-35640

NORAD 66536 · 2025-265W

PAYLOAD ACTIVE UNKNOWN

§ Identity

Operator
Country
US
Launch date
2025-11-19
Launch site
AFETR
Launch vehicle
Mass (kg)
RCS (m²)

Purposes: comms

External: N2YO · Heavens-Above · Gunter

§ Orbital elements

Epoch: 2026-05-25T04:51:55.180800Z

Period
94.27 min
Inclination
42.9984°
Eccentricity
0.0000060
Mean motion
15.27585609 rev/d
Perigee alt
483.0 km
Apogee alt
483.1 km
Semi-major
6,861.2 km
B*
1.4848e-4
RAAN
205.9546°
Arg perigee
145.9261°
Mean anomaly
214.1595°
Rev number
2,881

§ Raw data

STARLINK-356401 66536U 25265W   26145.20272200  .00003827  00000+0  14848-3 0  99962 66536  42.9984 205.9546 0000060 145.9261 214.1595 15.27585609 28813

JSON: /api/v1/satellites/66536 · /tle

For live sub-satellite position, see the globe view (requires WebGL).

§ Visibility from observer

Set your observer location to see the next 7 days of passes ≥ 10°. The values pass through the URL so the page stays shareable.

No JS? Fill the form by hand. The geolocation button needs JavaScript.